Regional Weather Roundup
Issued by NWS Grand Forks, ND

Home | Current Version | Previous Version | Text Only | Print | Product List | Glossary On
Versions: 1 2 3 4 5 6 7 8 9 10 11 12 13 14 15 16 17 18 19 20 21 22 23 24 25 26 27 28 29 30 31 32 33 34 35 36 37 38 39 40 41 42 43 44 45 46 47 48 49 50
000
ASUS43 KFGF 260610
RWRFGF
PRAIRIE TO PINES  WEATHER ROUNDUP
NATIONAL WEATHER SERVICE EASTERN NORTH DAKOTA/GRAND FORKS ND
100 AM CDT SUN OCT 26 2014

 **SATELLITE DATA USED TO AUGMENT SKY COVER AT AUTOMATED STATIONS**
 *****  WEATHER ACROSS EASTERN NORTH DAKOTA  *****

CITY           SKY/WX    TMP DP  RH WIND       PRES   REMARKS
GRAND FORKS    CLEAR     32  25  75 SW5       29.98S
6HR MIN TEMP:  30; 6HR MAX TEMP:  49;

GRAND FRKS AFB CLEAR     33  25  72 SW3       29.98S
GRAND FRKS NWS   N/A     36 N/A N/A SW3         N/A
DEVILS LAKE    PTCLDY    37  27  65 SE3       29.94S
6HR MIN TEMP:  36; 6HR MAX TEMP:  52;

FARGO          CLEAR     38  24  57 SE5       29.99F
WAHPETON ARPT  CLEAR     36  23  60 SE5       30.01F
$$

 ***** WEATHER ACROSS CENTRAL AND WESTERN NORTH DAKOTA  *****

CITY           SKY/WX    TMP DP  RH WIND       PRES   REMARKS
BISMARCK       CLEAR     47  32  56 SE15      29.87F
6HR MIN TEMP:  40; 6HR MAX TEMP:  49;

MINOT          MOCLDY    38  30  73 SE5       29.85F
6HR MIN TEMP:  37; 6HR MAX TEMP:  52;

JAMESTOWN      CLEAR     39  29  67 SE7       29.95F
6HR MIN TEMP:  37; 6HR MAX TEMP:  49;

MINOT AFB      MOCLDY    37  31  80 SE8       29.84F
GARRISON         N/A     47  31  53 SE10      29.85F
WILLISTON      MOCLDY    54  30  40 SE14      29.72F
6HR MIN TEMP:  51; 6HR MAX TEMP:  57;

DICKINSON      PTCLDY    49  29  46 SE17      29.74F
6HR MIN TEMP:  49; 6HR MAX TEMP:  54;

HETTINGER      PTCLDY    49  29  46 SE15G22   29.78F
6HR MIN TEMP:  49; 6HR MAX TEMP:  56;

$$

 *****  OTHER AIRPORT OBSERVATIONS IN OUR AREA  *****

CITY           SKY/WX    TMP DP  RH WIND       PRES   REMARKS
WALHALLA       FAIR      37  25  60 CALM      29.96S
GRAFTON AIRPOR FAIR      36  27  69 SW5       29.97S
VALLEY CITY AR FAIR      37  27  65 S7        29.98F
CANDO          FAIR      34  30  86 SE9       29.94F
CAVALIER APRT    N/A     37  25  60 W3        29.96F
GWINNER        CLEAR     43  32  65 S6        30.00F
SHEYENNE NWR     N/A     34  26  71 SE3       29.95S
ROLLA          FAIR      32  23  69 S5        29.94F
 ***** THE ABOVE OBSERVATIONS ARE NON NWS ARE NOT QUALITY
       CONTROLLED AND MAY MIS-REPORT RAIN FOR SNOW...
$$

  *****  WEATHER ACROSS NORTHERN MINNESOTA  *****

CITY           SKY/WX    TMP DP  RH WIND       PRES   REMARKS
FLAG ISLAND    CLEAR     43  30  61 NW7       29.94S
WARROAD        CLEAR     37  27  65 W5        29.96F
ROSEAU         CLEAR     34  27  75 CALM      29.96S
HALLOCK        PTCLDY    30  21  69 SE6       29.96S WCI  24
THF RVR FALLS  CLEAR     36  23  60 S3        29.98F
6HR MIN TEMP:  36; 6HR MAX TEMP:  52;

BAUDETTE       CLEAR     34  25  69 CALM      29.96S
6HR MIN TEMP:  33; 6HR MAX TEMP:  49;

WASKISH        CLEAR     32  28  86 CALM      29.97S
CROOKSTON      PTCLDY    34  25  69 SE7       29.99F
STEPHEN NDAWN    N/A     36  21  55 S3          N/A
GREENBUSH NDAW   N/A     34  25  69 S5          N/A
$$
  *****  WEATHER ACROSS CENTRAL AND WEST MINNESOTA  *****

CITY           SKY/WX    TMP DP  RH WIND       PRES   REMARKS
FOSSTON        CLEAR     30  21  69 S7        30.00F WCI  23
BEMIDJI        CLEAR     33  24  70 SW5       29.99F
PARK RAPIDS    CLEAR     35  24  64 CALM      30.00F
6HR MIN TEMP:  33; 6HR MAX TEMP:  44;

ELBOW LAKE     FAIR      42  30  62 SE3       30.01F
6HR MIN TEMP:  40; 6HR MAX TEMP:  49;

WADENA         CLEAR     32  27  80 CALM      30.01F
DETROIT LAKES  CLEAR     37  32  81 CALM      30.01F
MOORHEAD       CLEAR     39  27  60 SE6       30.00F
FERGUS FALLS   PTCLDY    43  27  52 SE6       30.02F
MORRIS MN      NOT AVBL
STAPLES        CLEAR     34  27  75 CALM      30.01F
$$
  *****  WEATHER ELSEWHERE ACROSS MINNESOTA  *****

CITY           SKY/WX    TMP DP  RH WIND       PRES   REMARKS
DULUTH         CLEAR     39  25  57 W8        29.97S
6HR MIN TEMP:  38; 6HR MAX TEMP:  51;

INTRNTL FALLS  CLEAR     28  23  81 CALM      29.95S
6HR MIN TEMP:  27; 6HR MAX TEMP:  45;

ELY            CLEAR     36  27  69 W5        29.94F
CLOQUET        CLEAR     39  27  60 W6        29.98F
WHEATON        CLEAR     37  27  65 CALM      30.03F
BRAINERD       CLEAR     31  26  82 S5        30.02F
6HR MIN TEMP:  31; 6HR MAX TEMP:  52;

HIBBING        CLEAR     31  25  78 W5        29.97S
6HR MIN TEMP:  28; 6HR MAX TEMP:  51;

ALEXANDRIA     CLEAR     37  32  82 CALM      30.04S
6HR MIN TEMP:  37; 6HR MAX TEMP:  51;

SAINT CLOUD    CLEAR     36  28  73 CALM      30.03F
6HR MIN TEMP:  36; 6HR MAX TEMP:  51;

MINNEAPOLIS    CLEAR     45  27  49 S3        30.05S
6HR MIN TEMP:  44; 6HR MAX TEMP:  54;

$$

  *****  WEATHER ACROSS SOUTH DAKOTA  *****

CITY           SKY/WX    TMP DP  RH WIND       PRES   REMARKS
SIOUX FALLS    CLEAR     41  33  73 NE7       30.02F
6HR MIN TEMP:  40; 6HR MAX TEMP:  55;

BROOKINGS      NOT AVBL
WATERTOWN      CLEAR     41  30  65 S6        30.01F
6HR MIN TEMP:  38; 6HR MAX TEMP:  53;

HURON          CLEAR     44  31  60 SE8       29.97F
6HR MIN TEMP:  43; 6HR MAX TEMP:  54;

SISSETON         N/A     35  27  72 S3        30.00F
ABERDEEN       CLEAR     36  29  75 SE7       29.97F
6HR MIN TEMP:  36; 6HR MAX TEMP:  52;

MITCHELL       CLEAR     44  35  70 SE7       29.98F
PIERRE         CLEAR     48  36  63 E10       29.89F
6HR MIN TEMP:  47; 6HR MAX TEMP:  56;

MOBRIDGE       CLEAR     52  34  50 SE16      29.86F
RAPID CITY     CLOUDY    47  37  68 SE9       29.81F
6HR MIN TEMP:  45; 6HR MAX TEMP:  56;

$$

  *****  SOME WEATHER IN NEARBY STATES *****

CITY           SKY/WX    TMP DP  RH WIND       PRES   REMARKS
GLASGOW MT     MOCLDY    49  32  52 E15       29.58F
6HR MIN TEMP:  49; 6HR MAX TEMP:  60;

GREAT FALLS MT PTCLDY    49  39  68 SW10      29.63R
6HR MIN TEMP:  43; 6HR MAX TEMP:  53;

CHEYENNE WY    CLEAR     47  25  42 SW7       30.01F
6HR MIN TEMP:  47; 6HR MAX TEMP:  65;

SCOTTSBLUFF NE CLEAR     49  38  65 E12       29.89F
6HR MIN TEMP:  47; 6HR MAX TEMP:  67;

OMAHA NE       CLEAR     59  37  44 SE9       30.00F
6HR MIN TEMP:  57; 6HR MAX TEMP:  66;

DES MOINES IA  CLEAR     55  36  48 E5        30.05F
6HR MIN TEMP:  51; 6HR MAX TEMP:  65;

DAVENPORT IA   CLEAR     40  33  76 CALM      30.05S
6HR MIN TEMP:  39; 6HR MAX TEMP:  56;

CHICAGO IL     CLEAR     49  30  48 W8        29.97S
6HR MIN TEMP:  49; 6HR MAX TEMP:  63;

EAU CLAIRE WI  CLEAR     43  27  53 W5        30.02S
6HR MIN TEMP:  40; 6HR MAX TEMP:  55;

LA CROSSE WI   CLEAR     42  35  76 CALM      30.04R
6HR MIN TEMP:  40; 6HR MAX TEMP:  57;

$$

  *****  SOME NATIONAL WEATHER *****

CITY           SKY/WX    TMP DP  RH WIND       PRES   REMARKS
LA GUARDIA NY  CLOUDY    61  48  62 W14       29.55F
6HR MIN TEMP:  60; 6HR MAX TEMP:  64; 6HR PCP: TRACE;

RALEIGH NC     CLEAR     51  41  68 SW3       29.84F
6HR MIN TEMP:  50; 6HR MAX TEMP:  59;

ATLANTA GA     CLEAR     60  52  74 W3        30.01F
6HR MIN TEMP:  60; 6HR MAX TEMP:  67;

NEW ORLEANS LA CLEAR     62  58  86 W5        30.07F
6HR MIN TEMP:  62; 6HR MAX TEMP:  73;

OKLAHOMA CITY  CLEAR     65  57  75 S9        29.98F
6HR MIN TEMP:  64; 6HR MAX TEMP:  79;

ALBUQUERQUE NM CLEAR     57  35  43 SE8       30.19S
6HR MIN TEMP:  57; 6HR MAX TEMP:  76;

SALT LAKE CITY PTCLDY    68  39  34 S16G28    29.91R
6HR MIN TEMP:  68; 6HR MAX TEMP:  75; 6HR PCP: TRACE;




USA.gov is the U.S. government's official web portal to all federal, state and local government web resources and services.